732  
ASUS44 KOUN 131710  
RWROK  
 
WEATHER ROUNDUP FOR OKLAHOMA  
NATIONAL WEATHER SERVICE NORMAN OK  
1200 PM CDT THU JUN 13 2024  
 
NOTE: "FAIR" INDICATES FEW OR NO CLOUDS BELOW 12,000 FEET WITH NO  
SIGNIFICANT WEATHER AND/OR S TO VISIBILITY
.  
 
OKZ001>007-009>012-014-015-017-131800-  
NORTHWEST OKLAHOMA AND THE PANHANDLE  
 
CITY SKY/WX TMP DP RH WIND PRES REMARKS
 
GAGE SUNNY 93 67 42 S17G26 29.94S HX 96  
GUYMON SUNNY 96 63 33 SW16G22 29.94F HX 97  
ENID/WOODRING SUNNY 95 70 43 S14G23 29.92S HX 101  

 
 
OKZ016-021>023-033>039-044-045-131800-  
SOUTHWEST OKLAHOMA  
 
CITY SKY/WX TMP DP RH WIND PRES REMARKS
 
LAWTON/REGL SUNNY 89 71 55 SW10 29.98S HX 95  
LAWTON/FT SILL SUNNY 88 71 56 S10G17 29.95S HX 93  
FREDERICK SUNNY 88 72 58 S7 29.95F HX 94  
CLINTON SUNNY 90 67 46 S20G30 29.97F HX 93  
HOBART SUNNY 89 71 55 SW17G26 29.98S HX 95  
ALTUS AFB SUNNY 89 69 51 S12 29.96R HX 94  

 
 
OKZ018>020-024>031-131800-  
CENTRAL OKLAHOMA  
 
CITY SKY/WX TMP DP RH WIND PRES REMARKS
 
OKLAHOMA CITY MOSUNNY 86 71 60 S16G25 29.97F HX 91  
OKC/WILEY POST SUNNY 89 73 59 SW16 29.96F HX 97  
OKC/TINKER AFB MOSUNNY 87 71 58 SW15 29.94S HX 93  
STILLWATER MOSUNNY 90 73 58 S15G22 29.94S HX 98  
GUTHRIE SUNNY 89 71 55 SW15 29.95S HX 95  

 
 
OKZ008-013-054>072-131800-  
NORTHEAST OKLAHOMA  
 
CITY SKY/WX TMP DP RH WIND PRES REMARKS
 
TULSA MOSUNNY 87 71 58 SW12G20 29.95S HX 93  
TULSA/JONES SUNNY 87 70 56 SW13G20 29.95S HX 92  
PONCA CITY SUNNY 89 71 55 S10G24 29.91F HX 95  
BARTLESVILLE SUNNY 87 72 60 SW10 29.95R HX 93  
MUSKOGEE SUNNY 85 70 60 S10 30.00S  

 
 
OKZ032-040>043-046>053-073>077-131800-  
SOUTH CENTRAL/SOUTHEAST OKLAHOMA  
 
CITY SKY/WX TMP DP RH WIND PRES REMARKS
 
ARDMORE/DWNTWN MOSUNNY 87 72 62 S6 30.00S HX 93  
MCALESTER SUNNY 85 69 58 SW9 30.00S  

 
 
 
 
CLICK HERE TO GO TO PREVIOUS BULLETINS.

The Nexlab OK Page Main Text Page